This is the latest recevied weather packets stored in our database for station/object LA3SP-1. If no packets are shown the sender has not sent any weather packets the latest 10 day(s).
| Time | Temp. | Humidity | Pressure | Rain* | Wind** | Luminosity | Snow |
|---|---|---|---|---|---|---|---|
| 1777977664 | 2.22° C | 52% | 1004.9 hPa | 0 mm | - | - | - |
| 1777977063 | 1.67° C | 50% | 1004.7 hPa | 0 mm | - | - | - |
| 1777975861 | 1.67° C | 54% | 1004.7 hPa | 0 mm | - | - | - |
| 1777975259 | 1.67° C | 51% | 1004.8 hPa | 0 mm | - | - | - |
| 1777974658 | 1.67° C | 53% | 1004.7 hPa | 0 mm | - | - | - |
| 1777974056 | 2.22° C | 51% | 1004.8 hPa | 0 mm | - | - | - |
| 1777973455 | 2.78° C | 55% | 1004.7 hPa | 0 mm | - | - | - |
| 1777972853 | 1.67° C | 57% | 1004.7 hPa | 0 mm | - | - | - |
| 1777971651 | 0.56° C | 57% | 1004.5 hPa | 0 mm | - | - | - |
| 1777971049 | 0.56° C | 57% | 1004.6 hPa | 0 mm | - | - | - |
| 1777970448 | 0° C | 56% | 1004.5 hPa | 0 mm | - | - | - |
| 1777970115 | 1.11° C | 59% | 1004.7 hPa | 0 mm | - | - | - |
| 1777969246 | 1.11° C | 59% | 1004.7 hPa | 0 mm | - | - | - |
| 1777967443 | -1.11° C | 61% | 1004.5 hPa | 0 mm | - | - | - |
| 1777966839 | -1.67° C | 64% | 1004.3 hPa | 0 mm | - | - | - |
| 1777966487 | -3.33° C | 64% | 1004.4 hPa | 0 mm | - | - | - |
| 1777966238 | -2.78° C | 64% | 1004.5 hPa | 0 mm | - | - | - |
| 1777965637 | -3.33° C | 64% | 1004.4 hPa | 0 mm | - | - | - |
| 1777963833 | -3.89° C | 64% | 1003.8 hPa | 0 mm | - | - | - |
| 1777963231 | -3.89° C | 64% | 1003.7 hPa | 0 mm | - | - | - |
| 1777962028 | -4.44° C | 64% | 1003.8 hPa | 0 mm | - | - | - |
| 1777961427 | -4.44° C | 65% | 1003.7 hPa | 0 mm | - | - | - |
| 1777960825 | -4.44° C | 66% | 1003.9 hPa | 0 mm | - | - | - |
| 1777957819 | -5° C | 71% | 1003.5 hPa | 0 mm | - | - | - |
| 1777957217 | -5° C | 70% | 1003.6 hPa | 0 mm | - | - | - |
* Rain latest 24 hours (hover to see other rain measurements)
** Current wind speed in m/s (hover to see current wind gust speed)